Regional Weather Roundup
Issued by NWS Sioux Falls, SD

Home | Current Version | Previous Version | Text Only | Print | Product List | Glossary On
Versions: 1 2 3 4 5 6 7 8 9 10 11 12 13 14 15 16 17 18 19 20 21 22 23 24 25 26 27 28 29 30 31 32 33 34 35 36 37 38 39 40 41 42 43 44 45 46 47 48 49 50
000
ASUS43 KFSD 230510
RWRFSD

WEATHER ROUNDUP FOR SE SOUTH DAKOTA/SW MINNESOTA/NW IOWA
NATIONAL WEATHER SERVICE SIOUX FALLS SD
1200 AM CDT WED MAY 23 2018

NOTE: "FAIR" INDICATES FEW OR NO CLOUDS BELOW 12,000 FEET WITH NO
SIGNIFICANT WEATHER AND OR OBSTRUCTIONS TO VISIBILITY.


SDZ038>040-050-052>070-230600-
SOUTHEAST SOUTH DAKOTA

CITY           SKY/WX    TMP DP  RH WIND       PRES   REMARKS
BROOKINGS      CLOUDY    68  61  78 E7        30.00R
CHAMBERLAIN    MOCLDY    70  70  99 E7        29.93S
HURON          CLOUDY    67  62  84 E6        29.94S
MADISON        FAIR      68  68 100 SE8       29.99S
MITCHELL       MOCLDY    68  65  90 SE7       29.94S
SIOUX FALLS    CLOUDY    70  62  76 SE9       29.98S
WINNER         FAIR      68  63  84 SE9       29.91F
YANKTON        PTCLDY    68  65  90 E7        29.95R
$$

MNZ071-072-080-081-089-090-097-098-230600-
SOUTHWEST MINNESOTA

CITY           SKY/WX    TMP DP  RH WIND       PRES   REMARKS
FAIRMONT       CLOUDY    72  61  68 S15       30.02S
JACKSON        CLOUDY    68  61  77 SE9       30.03R
LUVERNE        MOCLDY    68  59  73 SE5       30.00S
MARSHALL       PTCLDY    68  59  73 SE6       30.01R
MONTEVIDEO     CLOUDY    68  57  68 SE12      30.02R
PIPESTONE      CLOUDY    70  61  73 SE9       30.01R
REDWOOD FALLS  PTCLDY    65  58  78 E7        30.01R
TRACY          CLOUDY    68  63  82 SE3       30.01R
WINDOM         MOCLDY    70  50  49 SE5       30.01S
WORTHINGTON    LGT RAIN  70  63  78 SE7       30.02S
$$

IAZ001>003-012>014-020>022-031-032-NEZ013-014-SDZ071-230600-
NORTHWEST IOWA

CITY           SKY/WX    TMP DP  RH WIND       PRES   REMARKS
CHEROKEE       MOCLDY    68  64  86 S6        29.99F
DENISON        CLEAR     68  64  88 SE13      30.01S
ESTHERVILLE    TSTM      67  62  84 SE8       30.02R
ORANGE CITY    PTCLDY    70  61  73 SE6       29.99S
SHELDON        CLOUDY    70  64  83 SE10      29.98S
SIOUX CITY     CLOUDY    67  64  90 E9        29.96S
SPENCER        LGT RAIN  69  63  81 SE8       30.02R
STORM LAKE     CLOUDY    68  63  83 SE10      30.01S
$$

ABBREVIATIONS USED IN REMARKS
   TC - TEMPERATURE IN CELSIUS
  WCI - WIND CHILL INDEX
   HX - HEAT INDEX
  VSB - VISIBILITY





USA.gov is the U.S. government's official web portal to all federal, state and local government web resources and services.